Regional Weather Roundup
Issued by NWS Boston, MA

Current Version | Previous Version | Text Only | Print | Product List | Glossary Off
Versions: 1 2 3 4 5 6 7 8 9 10 11 12 13 14 15 16 17 18 19 20 21 22 23 24 25 26 27 28 29 30 31 32 33 34 35 36 37 38 39 40 41 42 43 44 45 46 47 48 49 50
000 ASUS41 KBOX 231810 RWRBOX REGIONAL WEATHER ROUNDUP NATIONAL WEATHER SERVICE TAUNTON MA 200 PM EDT SAT SEP 23 2017 NOTE: "FAIR" INDICATES FEW OR NO CLOUDS BELOW 12,000 FEET WITH NO SIGNIFICANT WEATHER AND/OR OBSTRUCTIONS TO VISIBILITY. MAZALL-231900- EASTERN MASSACHUSETTS CITY SKY/WX TMP DP RH WIND PRES REMARKS BOSTON MOSUNNY 73 61 65 E13 30.01F 6HR MIN TEMP: 63; 6HR MAX TEMP: 76; BEVERLY SUNNY 77 62 59 N8 30.01F LAWRENCE SUNNY 82 64 54 N6 30.03F BEDFORD MOSUNNY 82 61 48 N8 30.00F BLUE HILL N/A 74 61 63 E8 30.02F NORWOOD MOSUNNY 81 67 62 NE7 30.00F MARSHFIELD CLOUDY 64 61 88 VRB7 30.02F PLYMOUTH CLOUDY 66 62 87 NE9 30.02S TAUNTON CLOUDY 73 63 70 NE8 30.01S NEW BEDFORD CLOUDY 67 64 90 N7 29.99S $$ MAZALL-231900- CAPE COD AND THE ISLANDS CITY SKY/WX TMP DP RH WIND PRES REMARKS FALMOUTH FOG 61 61 100 N9G20 30.01R VSB 3/4 HYANNIS FOG 62 62 100 N15G23 29.97S VSB 3/4 CHATHAM CLOUDY 65 64 97 N8 29.98S FOG PROVINCETOWN CLOUDY 62 61 96 N10 30.01S NANTUCKET LGT RAIN 62 62 100 N20 29.96S VSB 3/4 MARTHAS VNYRD CLOUDY 69 65 86 N13G24 29.97S $$ MAZALL-231900- CENTRAL AND WESTERN MASSACHUSETTS CITY SKY/WX TMP DP RH WIND PRES REMARKS WORCESTER SUNNY 78 59 51 VRB6 30.05F 6HR MIN TEMP: 62; 6HR MAX TEMP: 79; FITCHBURG SUNNY 83 57 41 E6 30.03F ORANGE SUNNY 83 58 42 N10 30.04S SPRINGFIELD MOSUNNY 83 56 39 N6 30.01F WESTFIELD SUNNY 84 54 35 NE12 30.02F NORTH ADAMS SUNNY 79 55 43 W8 30.06F PITTSFIELD SUNNY 81 48 31 N7 30.07F $$ RIZALL-231900- RHODE ISLAND CITY SKY/WX TMP DP RH WIND PRES REMARKS PROVIDENCE MOSUNNY 79 66 64 NE12 30.01S 6HR MIN TEMP: 63; 6HR MAX TEMP: 79; NEWPORT CLOUDY 73 67 81 N15G22 30.00R BLOCK ISLAND MOSUNNY 73 66 78 NE16G24 29.99F SMITHFIELD MOSUNNY 77 66 68 N9 30.03S WESTERLY SUNNY 83 66 56 N12G18 29.99S $$ CTZALL-231900- CONNECTICUT CITY SKY/WX TMP DP RH WIND PRES REMARKS BRADLEY INTL MOSUNNY 85 52 32 NE12 30.02F 6HR MIN TEMP: 67; 6HR MAX TEMP: 85; HARTFORD SUNNY 83 59 44 N9 30.01F BRIDGEPORT SUNNY 86 62 44 N8 30.00F DANBURY SUNNY 83 54 36 N10 30.05F GROTON SUNNY 83 65 54 N14 29.99S NEW HAVEN SUNNY 85 61 44 N15 30.00F CHESTER FAIR 84 64 51 VRB6G14 30.02F MERIDEN SUNNY 85 59 41 N7 30.01F WILLIMANTIC PTSUNNY 84 65 52 N7 30.01S OXFORD SUNNY 81 62 52 N6 30.05S $$ MEZ002-015-021-024-NHZ003-005-008-011-012-014-VTZ005-008-231900- NORTHERN NEW ENGLAND CITY SKY/WX TMP DP RH WIND PRES REMARKS PORTLAND ME MOSUNNY 80 53 39 VRB3 30.02S 6HR MIN TEMP: 62; 6HR MAX TEMP: 81; BANGOR ME MOSUNNY 83 48 29 NW5 30.00F CONCORD NH SUNNY 83 58 42 NW6 30.03F MANCHESTER NH MOSUNNY 82 54 37 N5 30.01F NASHUA NH SUNNY 81 57 43 N8 30.03S PORTSMOUTH NH MOSUNNY 79 60 51 E7 30.01S JAFFREY NH SUNNY 83 60 45 VRB5 30.06F KEENE NH SUNNY 85 51 31 NW9 30.04F BURLINGTON VT PTSUNNY 83 47 28 VRB3 30.06F MT. WASHINGTON MOSUNNY 59 48 67 N15 N/A $$ NYZ052-076-231900- EASTERN NEW YORK CITY SKY/WX TMP DP RH WIND PRES REMARKS ALBANY MOSUNNY 81 53 37 N7 30.07F 6HR MIN TEMP: 58; 6HR MAX TEMP: 81; NEW YORK CITY MOSUNNY 83 52 34 N14 30.02F 6HR MIN TEMP: 72; 6HR MAX TEMP: 83; $$ ANZALL-231900- MARINE OBSERVATIONS STATION/POSITION TIME TEMP WIND PRES VSBY WAVE AIR SEA DIR/SP/G HT/PER (UTC) (F) (DEG/KT/KT) (MB) (MI) (FT/S) BOSTON BUOY 1750 61 59 30/ 10/ 12 1016.2F 5/ 8 BUZZARDS BAY 1700 65 10/ 18/ 19 1015.3F NANTUCKET SOUND 1750 62 62 360/ 14/ 16 1014.4R 3/ 4 MASS BAY-STELLWA 1704 62 60 20/ 12/ 14 1015.9R 5/ 8 ISLE OF SHOALS 1700 62 90/ 10/ 10 1016.3F S OF BLOCK IS NOT AVBL $$ ......................KEY......................... SKY/WX - SKY CONDITION/PRESENT WEATHER TMP - TEMPERATURE IN FAHRENHEIT DWPT - DEWPOINT IN FAHRENHEIT RH - RELATIVE HUMIDITY IN PERCENT WIND - DIRECTION AND SPEED IN MPH PRES - MEAN SEA LEVEL PRESSURE IN INCHES OF HG WCI - WIND CHILL INDEX VSB - VISIBILITY IN MILES HX - HEAT INDEX TC - TEMPERATURE IN CELSIUS VRB - VARIABLE WIND DIRECTION N/A - NOT AVAILABLE

USA.gov is the U.S. government's official web portal to all federal, state and local government web resources and services.